This demonstration page uses our WeatherBlox Daily Observations layout. Learn more.

Left ArrowRight Arrow

39.08367, -84.50855

Hourly Observations for September 30, 2015

Temp ( °F °C ) Dew Point ( °F °C ) Humidity (%) Winds ( mph kmh ) Pressure ( in mb ) Visibility ( mi km ) Precip ( " mm )
12:53 am 00:53 Cloudy 67 19.4 66 18.9 97 97 N 7 11 29.91 1013 7 11 0.00 0.00
1:21 am 01:21 Cloudy 65 18.3 63 17.2 93 93 N 21 33 29.91 1013 7 11 0.00 0.00
1:29 am 01:29 Cloudy 64 17.8 62 16.7 93 93 N 15 24 29.91 1013 7 11 0.00 0.00
1:53 am 01:53 Cloudy 63 17.2 60 15.6 90 90 NNE 13 20 29.92 1013 10 16 0.00 0.00
2:17 am 02:17 Cloudy 63 17.2 60 15.6 90 90 NNE 16 26 29.91 1013 10 16 0.00 0.00
2:45 am 02:45 Cloudy 62 16.7 59 15 90 90 NNE 10 17 29.91 1013 9 14 0.00 0.00
2:53 am 02:53 Cloudy 62 16.7 59 15 90 90 N 10 17 29.93 1014 9 14 0.00 0.00
3:34 am 03:34 Mostly Cloudy 63 17 57 14 83 83 N 6 9 29.91 1013 10 16 0.00 0.00
3:53 am 03:53 Cloudy 62 16.7 58 14.4 86 86 N 7 11 29.93 1013 10 16 0.00 0.00
4:19 am 04:19 Cloudy 62 16.7 58 14.4 86 86 NNE 9 15 29.91 1013 10 16 0.00 0.00
4:53 am 04:53 Cloudy with Light Rain 62 16.7 58 14.4 86 86 N 7 11 29.94 1014 9 14 0.00 0.03
5:00 am 05:00 Cloudy with Light Rain 61 16 57 14 88 88 N 9 15 29.91 1013 10 16 0.00 0.00
5:53 am 05:53 Cloudy with Light Rain 61 16.1 58 14.4 90 90 N 7 11 29.94 1014 10 16 0.01 0.25
6:53 am 06:53 Cloudy 60 15.6 57 13.9 90 90 N 10 17 29.96 1014 10 16 0.00 0.03
7:53 am 07:53 Cloudy 60 15.6 56 13.3 86 86 N 8 13 29.98 1015 10 16 0.00 0.00
8:53 am 08:53 Cloudy 60 15.6 55 12.8 84 84 N 10 17 29.99 1016 10 16 0.00 0.00
9:53 am 09:53 Cloudy 61 16.1 55 12.8 81 81 N 12 19 30.00 1016 10 16 0.00 0.00
10:53 am 10:53 Cloudy 61 16.1 55 12.8 81 81 N 12 19 30.02 1017 10 16 0.00 0.00
11:53 am 11:53 Cloudy 62 16.7 56 13.3 80 80 NNE 12 19 30.03 1017 10 16 0.00 0.00
12:53 pm 12:53 Cloudy 63 17.2 56 13.3 78 78 NNE 10 17 30.03 1017 10 16 0.00 0.00
1:53 pm 13:53 Cloudy 64 17.8 57 13.9 78 78 NNE 14 22 30.03 1017 10 16 0.00 0.00
2:53 pm 14:53 Cloudy 65 18.3 56 13.3 73 73 NNE 13 20 30.02 1017 10 16 0.00 0.00
3:53 pm 15:53 Cloudy 65 18.3 56 13.3 73 73 NNE 13 20 30.02 1017 10 16 0.00 0.00
4:31 pm 16:31 Cloudy 66 18.9 56 13.3 70 70 NNE 12 19 30.00 1016 10 16 0.00 0.00
4:53 pm 16:53 Cloudy 66 18.9 55 12.8 68 68 NNE 12 19 30.01 1016 10 16 0.00 0.00
5:53 pm 17:53 Mostly Cloudy 66 18.9 54 12.2 65 65 NE 12 19 30.02 1017 10 16 0.00 0.00
6:53 pm 18:53 Mostly Sunny 64 17.8 54 12.2 70 70 NE 10 17 30.02 1017 10 16 0.00 0.00
7:53 pm 19:53 Mostly Clear 63 17.2 53 11.7 70 70 NNE 8 13 30.03 1017 10 16 0.00 0.00
8:53 pm 20:53 Partly Cloudy 63 17.2 53 11.7 70 70 NNE 7 11 30.05 1018 10 16 0.00 0.03
9:53 pm 21:53 Cloudy 62 16.7 51 10.6 67 67 NE 9 15 30.06 1018 10 16 0.00 0.00
10:53 pm 22:53 Cloudy 61 16.1 50 10 67 67 NNE 15 24 30.07 1018 10 16 0.00 0.00
11:53 pm 23:53 Mostly Clear 60 15.6 50 10 70 70 NE 12 19 30.07 1018 10 16 0.00 0.00

Powered by AerisWeather